When you browse on this site, cookies collect data to enhance your experience and personalize the content and advertising you see.
Visit our Privacy Policy to learn more. By continuing to use the site, you agree to this use of cookies and data.
  • în România
  • Lista ţărilor
  • Pe 7 zile
  • Temperatura apei
  • Hartă satelitară
  • Meteo pe hartă
  • Widget-uri
  • user-avatar
    Intrare

    Meteo pe oră la San Juan

    Astăzi, 27 Iunie, Joi

    Timp Temperatura Precipitaţii Vânt Presiune Umiditate
    00:00 +10°C° 0 mm 1 m/s 698 mmHg 28%
    01:00 +10°C° 0 mm 1 m/s 698 mmHg 29%
    02:00 +9°C° 0 mm 1 m/s 698 mmHg 29%
    03:00 +9°C° 0 mm 1 m/s 697 mmHg 30%
    04:00 +9°C° 0 mm 1 m/s 697 mmHg 30%
    05:00 +9°C° 0 mm 1 m/s 697 mmHg 31%
    06:00 +9°C° 0 mm 1 m/s 697 mmHg 32%
    07:00 +8°C° 0 mm 1 m/s 697 mmHg 32%
    08:00 +11°C° 0 mm 1 m/s 698 mmHg 29%
    09:00 +13°C° 0 mm 2 m/s 698 mmHg 25%
    10:00 +15°C° 0 mm 2 m/s 698 mmHg 21%
    11:00 +16°C° 0 mm 2 m/s 698 mmHg 21%
    12:00 +17°C° 0 mm 3 m/s 697 mmHg 20%
    13:00 +18°C° 0 mm 3 m/s 697 mmHg 19%
    14:00 +17°C° 0 mm 3 m/s 697 mmHg 20%
    15:00 +17°C° 0 mm 4 m/s 697 mmHg 22%
    16:00 +15°C° 0 mm 4 m/s 697 mmHg 23%
    17:00 +14°C° 0 mm 4 m/s 697 mmHg 26%
    18:00 +13°C° 0 mm 3 m/s 697 mmHg 29%
    19:00 +12°C° 0 mm 3 m/s 697 mmHg 32%
    20:00 +11°C° 0 mm 3 m/s 697 mmHg 33%
    21:00 +12°C° 0 mm 2 m/s 697 mmHg 34%
    22:00 +10°C° 0 mm 2 m/s 697 mmHg 35%
    23:00 +10°C° 0 mm 2 m/s 697 mmHg 36%

    Mâine, 28 Iunie, Vineri

    Timp Temperatura Precipitaţii Vânt Presiune Umiditate
    00:00 +9°C° 0 mm 2 m/s 697 mmHg 37%
    01:00 +9°C° 0 mm 2 m/s 697 mmHg 38%
    02:00 +8°C° 0 mm 2 m/s 697 mmHg 40%
    03:00 +8°C° 0 mm 2 m/s 697 mmHg 41%
    04:00 +8°C° 0 mm 2 m/s 697 mmHg 42%
    05:00 +8°C° 0 mm 2 m/s 697 mmHg 43%
    06:00 +7°C° 0 mm 2 m/s 698 mmHg 44%
    07:00 +7°C° 0 mm 3 m/s 698 mmHg 45%
    08:00 +10°C° 0 mm 3 m/s 699 mmHg 40%
    09:00 +12°C° 0 mm 4 m/s 699 mmHg 36%
    10:00 +14°C° 0 mm 4 m/s 700 mmHg 32%
    11:00 +15°C° 0 mm 5 m/s 700 mmHg 30%
    12:00 +16°C° 0 mm 5 m/s 700 mmHg 28%
    13:00 +16°C° 0 mm 6 m/s 700 mmHg 27%
    14:00 +16°C° 0 mm 6 m/s 700 mmHg 29%
    15:00 +16°C° 0 mm 6 m/s 700 mmHg 31%
    16:00 +15°C° 0 mm 6 m/s 700 mmHg 33%
    17:00 +14°C° 0 mm 5 m/s 700 mmHg 37%
    18:00 +13°C° 0 mm 4 m/s 700 mmHg 42%
    19:00 +11°C° 0 mm 3 m/s 701 mmHg 47%
    20:00 +11°C° 0 mm 4 m/s 701 mmHg 47%
    21:00 +11°C° 0 mm 4 m/s 701 mmHg 48%
    22:00 +10°C° 0 mm 4 m/s 702 mmHg 49%
    23:00 +9°C° 0 mm 3 m/s 702 mmHg 51%

    Poimâine, 29 Iunie, Sâmbătă

    Timp Temperatura Precipitaţii Vânt Presiune Umiditate
    00:00 +9°C° 0 mm 3 m/s 701 mmHg 53%
    01:00 +8°C° 0 mm 2 m/s 701 mmHg 55%
    02:00 +8°C° 0 mm 2 m/s 701 mmHg 56%
    03:00 +7°C° 0 mm 2 m/s 701 mmHg 58%
    04:00 +8°C° 0 mm 1 m/s 701 mmHg 59%
    05:00 +7°C° 0 mm 1 m/s 701 mmHg 60%
    06:00 +7°C° 0 mm 1 m/s 702 mmHg 61%
    07:00 +7°C° 0 mm 1 m/s 702 mmHg 62%
    08:00 +8°C° 0 mm 1 m/s 702 mmHg 57%
    09:00 +9°C° 0 mm 2 m/s 703 mmHg 51%
    10:00 +12°C° 0 mm 2 m/s 703 mmHg 46%
    11:00 +11°C° 0 mm 3 m/s 703 mmHg 44%
    12:00 +12°C° 0 mm 3 m/s 703 mmHg 42%
    13:00 +13°C° 0 mm 4 m/s 702 mmHg 40%
    14:00 +13°C° 0 mm 4 m/s 703 mmHg 41%
    15:00 +13°C° 0 mm 4 m/s 703 mmHg 42%
    16:00 +12°C° 0 mm 5 m/s 703 mmHg 43%
    17:00 +11°C° 0 mm 4 m/s 704 mmHg 47%
    18:00 +10°C° 0 mm 3 m/s 705 mmHg 52%
    19:00 +9°C° 0 mm 3 m/s 706 mmHg 57%
    20:00 +9°C° 0 mm 2 m/s 707 mmHg 59%
    21:00 +8°C° 0 mm 2 m/s 707 mmHg 61%
    22:00 +8°C° 0 mm 2 m/s 708 mmHg 64%
    23:00 +7°C° 0 mm 2 m/s 708 mmHg 65%

    30 Iunie, Duminică

    Timp Temperatura Precipitaţii Vânt Presiune Umiditate
    00:00 +7°C° 0 mm 2 m/s 708 mmHg 66%
    01:00 +7°C° 0 mm 2 m/s 707 mmHg 67%
    02:00 +6°C° 0 mm 2 m/s 707 mmHg 71%
    03:00 +6°C° 0 mm 2 m/s 707 mmHg 76%
    04:00 +4°C° 0 mm 3 m/s 707 mmHg 80%
    05:00 +5°C° 0 mm 2 m/s 708 mmHg 82%
    06:00 +5°C° 0 mm 2 m/s 708 mmHg 84%
    07:00 +4°C° 0 mm 2 m/s 708 mmHg 85%
    08:00 +6°C° 0 mm 2 m/s 708 mmHg 78%
    09:00 +7°C° 0 mm 2 m/s 709 mmHg 70%
    10:00 +9°C° 0 mm 3 m/s 709 mmHg 63%
    11:00 +10°C° 0 mm 3 m/s 708 mmHg 59%
    12:00 +11°C° 0 mm 4 m/s 708 mmHg 54%
    13:00 +11°C° 0 mm 4 m/s 707 mmHg 50%
    14:00 +11°C° 0 mm 4 m/s 708 mmHg 50%
    15:00 +11°C° 0 mm 4 m/s 708 mmHg 49%
    16:00 +11°C° 0 mm 4 m/s 708 mmHg 48%
    17:00 +10°C° 0 mm 4 m/s 709 mmHg 51%
    18:00 +8°C° 0 mm 4 m/s 710 mmHg 54%
    19:00 +9°C° 0 mm 3 m/s 710 mmHg 57%
    20:00 +8°C° 0 mm 3 m/s 711 mmHg 57%
    21:00 +8°C° 0 mm 3 m/s 711 mmHg 57%
    22:00 +8°C° 0 mm 3 m/s 712 mmHg 58%
    23:00 +6°C° 0 mm 4 m/s 712 mmHg 57%

    1 Iulie, Luni

    Timp Temperatura Precipitaţii Vânt Presiune Umiditate
    00:00 +6°C° 0 mm 4 m/s 712 mmHg 57%
    01:00 +6°C° 0 mm 4 m/s 712 mmHg 56%
    02:00 +5°C° 0 mm 3 m/s 712 mmHg 58%
    03:00 +4°C° 0 mm 3 m/s 712 mmHg 61%
    04:00 +5°C° 0 mm 2 m/s 712 mmHg 63%
    05:00 +4°C° 0 mm 2 m/s 712 mmHg 65%
    06:00 +5°C° 0 mm 1 m/s 712 mmHg 67%
    07:00 +5°C° 0 mm 1 m/s 712 mmHg 69%
    08:00 +6°C° 0 mm 1 m/s 712 mmHg 63%
    09:00 +8°C° 0 mm 1 m/s 712 mmHg 57%
    10:00 +9°C° 0 mm 1 m/s 711 mmHg 51%
    11:00 +9°C° 0 mm 2 m/s 710 mmHg 48%
    12:00 +10°C° 0 mm 2 m/s 710 mmHg 45%
    13:00 +12°C° 0 mm 2 m/s 709 mmHg 41%
    14:00 +11°C° 0 mm 3 m/s 708 mmHg 40%
    15:00 +12°C° 0 mm 3 m/s 708 mmHg 39%
    16:00 +12°C° 0 mm 3 m/s 708 mmHg 38%
    17:00 +11°C° 0 mm 3 m/s 708 mmHg 42%
    18:00 +10°C° 0 mm 3 m/s 707 mmHg 46%
    19:00 +9°C° 0 mm 3 m/s 707 mmHg 49%
    20:00 +9°C° 0 mm 3 m/s 707 mmHg 52%
    21:00 +8°C° 0 mm 3 m/s 707 mmHg 55%
    22:00 +8°C° 0 mm 3 m/s 707 mmHg 57%
    23:00 +7°C° 0 mm 2 m/s 706 mmHg 60%

    2 Iulie, Marţi

    Timp Temperatura Precipitaţii Vânt Presiune Umiditate
    00:00 +7°C° 0 mm 1 m/s 706 mmHg 63%
    01:00 +7°C° 0 mm 1 m/s 705 mmHg 66%
    02:00 +6°C° 0 mm 1 m/s 705 mmHg 67%
    03:00 +5°C° 0 mm 0 m/s 704 mmHg 68%
    04:00 +5°C° 0 mm 0 m/s 704 mmHg 70%
    05:00 +5°C° 0 mm 0 m/s 704 mmHg 69%
    06:00 +5°C° 0 mm 0 m/s 704 mmHg 68%
    07:00 +5°C° 0 mm 0 m/s 704 mmHg 67%
    08:00 +7°C° 0 mm 0 m/s 704 mmHg 58%
    09:00 +11°C° 0 mm 1 m/s 704 mmHg 48%
    10:00 +13°C° 0 mm 1 m/s 704 mmHg 39%
    11:00 +14°C° 0 mm 1 m/s 703 mmHg 36%
    12:00 +16°C° 0 mm 2 m/s 702 mmHg 33%
    13:00 +17°C° 0 mm 2 m/s 701 mmHg 30%
    14:00 +16°C° 0 mm 2 m/s 701 mmHg 31%
    15:00 +16°C° 0 mm 2 m/s 701 mmHg 32%
    16:00 +16°C° 0 mm 2 m/s 700 mmHg 33%
    17:00 +14°C° 0 mm 2 m/s 700 mmHg 36%
    18:00 +13°C° 0 mm 2 m/s 700 mmHg 40%
    19:00 +12°C° 0 mm 2 m/s 700 mmHg 44%
    20:00 +12°C° 0 mm 2 m/s 700 mmHg 45%
    21:00 +11°C° 0 mm 1 m/s 700 mmHg 46%
    22:00 +11°C° 0 mm 1 m/s 700 mmHg 47%
    23:00 +11°C° 0 mm 1 m/s 700 mmHg 46%
    Arată mai mult